CAPE
6 8 5 7 4 8 9 9 8 8 7 8 6 6 2 4 1 0 0 0 0 0 0 0 0 0 0 0 0 0 0 0 0 0 0 0 0 0 0 0 0 0 0 0 0
6 5 6 4 3 4 7 9 8 8 8 7 6 5 2 2 0 0 0 0 0 0 0 0 0 0 0 0 0 0 0 0 0 0 0 0 0 0 0 0 0 0 0 0 0
3 9 4 4 3 5 3 4 6 7 8 3 4 4 1 1 0 0 0 0 0 0 0 0 0 0 0 0 0 0 0 0 0 0 0 0 0 0 0 0 0 0 0 0 0
6 6 6 6 6 3 4 5 1 1 2 2 1 2 0 0 0 0 186 0 0 0 0 0 0 0 0 0 0 0 0 0 0 0 0 0 0 0 0 0 0 0 0 0 0
5 5 6 4 3 6 4 4 3 0 0 1 1 2 0 0 0 0 0 0 0 0 0 0 0 0 0 0 0 0 0 0 0 0 0 0 0 0 0 0 0 0 0 0 0
3 4 2 3 3 6 6 3 1 2 0 0 3 0 0 0 0 0 0 0 0 0 0 0 0 0 0 0 0 0 0 0 0 0 0 0 0 0 0 0 0 0 0 0 0
1 2 4 2 2 4 5 7 6 3 4 2 3 0 0 0 0 0 0 0 0 0 0 0 0 0 0 0 0 0 0 0 0 0 0 0 0 0 0 0 0 0 0 0 0
0 2 2 3 4 3 5 7 5 1 1 2 4 0 0 0 0 0 0 0 0 0 0 0 0 0 0 0 0 0 0 0 0 0 0 0 0 0 0 0 0 0 0 0 0
0 0 2 1 4 5 6 1 1 2 3 3 0 0 0 0 0 0 0 0 0 0 0 0 0 0 0 0 0 0 0 0 0 0 0 0 0 0 0 0 0 0 0 0 0
0 0 0 3 4 8 4 0 1 1 2 0 0 0 0 0 0 0 0 0 0 0 0 0 0 0 0 0 0 0 0 0 0 0 0 0 0 0 0 0 0 0 0 0 0
0 0 1 4 5 5 1 0 0 0 0 0 0 0 0 0 0 0 0 0 0 0 0 0 0 0 0 0 0 0 0 0 0 0 0 0 0 0 0 0 0 0 0 0 0
0 0 2 5 1 3 0 0 0 0 0 0 0 0 0 0 0 0 0 0 0 0 0 0 0 0 0 0 0 0 0 0 0 0 0 0 0 0 0 0 0 0 0 0 0
0 0 2 4 0 0 0 0 0 0 0 0 0 0 0 0 0 0 0 0 0 0 0 0 0 0 0 0 0 0 0 0 0 0 0 0 0 0 0 0 0 0 0 0 0
0 0 5 6 0 0 0 0 0 0 0 0 0 0 0 0 0 0 0 0 0 0 0 0 0 0 0 0 0 0 0 0 0 0 0 0 0 0 0 0 0 0 0 0 0
0 0 12 12 0 0 0 0 0 0 2 0 0 0 0 0 0 0 0 0 0 0 0 0 0 0 0 0 0 0 0 0 0 0 0 0 0 0 0 0 0 0 0 0 0
0 6 11 0 0 0 0 0 0 0 0 1 0 0 0 0 0 0 0 0 0 0 0 0 0 0 0 0 0 0 0 0 0 0 0 0 0 0 0 0 0 0 0 0 0
0 1 0 0 0 0 0 0 0 0 0 2 0 0 0 0 0 0 0 0 0 0 0 5 0 0 0 0 0 0 8 9 3 9 2 1 0 0 0 0 0 0 0 0 2
0 0 0 0 0 0 0 0 4 0 0 0 0 0 3 0 0 0 1 0 0 0 0 1 4 0 0 0 5 31 13 31 19 9 0 0 0 0 0 2 2 26 20 18 12
0 0 0 0 0 0 0 16 7 2 0 0 0 10 38 6 0 0 0 3 2 2 1 10 5 0 0 0 0 22 5 10 2 0 2 0 1 3 27 32 66 53 32 14 3
0 0 0 0 0 0 7 0 2 0 0 0 0 0 16 10 8 1 1 0 2 0 6 3 6 0 3 0 0 0 7 7 50 14 0 0 0 0 55 122 66 44 37 21 7
0 0 0 0 0 24 35 11 0 0 0 0 2 4 7 10 10 5 1 0 1 3 0 7 7 0 0 0 3 20 12 32 35 53 24 4 0 30 0 24 17 28 6 4 3
0 0 0 0 33 3 10 0 0 4 3 8 8 4 2 15 11 10 10 0 0 0 3 21 15 15 1 4 0 0 0 10 93 25 65 47 3 4 14 22 101 101 37 34 31
0 0 0 0 17 12 3 0 0 5 15 18 15 14 3 0 7 25 9 0 0 4 7 36 22 11 0 1 1 0 0 5 30 62 67 117 11 35 25 26 30 147 152 113 181
0 1 0 0 0 0 1 1 9 5 1 12 25 10 4 6 5 9 9 1 0 0 3 0 2 18 6 2 6 6 3 13 50 132 76 60 48 29 60 83 113 156 106 99 160
0 1 0 2 3 6 5 2 7 6 8 14 1 32 18 8 7 5 6 4 0 0 10 11 15 14 4 2 0 2 3 4 10 19 66 2 36 36 82 101 90 123 78 61 43
6 8 8 7 7 5 6 2 14 3 7 11 33 21 12 32 15 14 2 7 16 5 36 57 12 18 16 1 0 0 0 1 9 17 49 49 38 62 36 40 51 67 47 29 21
0 3 8 4 4 3 5 6 3 3 1 7 39 13 16 11 17 24 29 39 19 22 25 66 38 32 21 5 18 16 23 13 15 36 48 52 66 51 52 62 31 30 28 30 30
CIN
-0 -0 -0 -0 -0 -0 -0 -0 -0 -0 -0 -1 -0 -0 -0 -0 -0 -0 -0 -0 -0 -0 -0 -0 -0 -0 -0 -0 -0 -0 -0 -0 -0 -0 -0 -0 -0 -0 -0 -0 -0 -0 -0 -0 -0
-0 -0 -0 -0 -0 -0 -0 -0 -1 -1 -1 -1 -0 -0 -0 -0 -0 -0 -0 -0 -0 -0 -0 -0 -0 -0 -0 -0 -0 -0 -0 -0 -0 -0 -0 -0 -0 -0 -0 -0 -0 -0 -0 -0 -0
-0 -0 -0 -0 -0 -0 -0 -0 -0 -0 -0 -0 -0 -0 -0 -0 -0 -0 -0 -0 -0 -0 -0 -0 -0 -0 -0 -0 -0 -0 -0 -0 -0 -0 -0 -0 -0 -0 -0 -0 -0 -0 -0 -0 -0
-0 -0 -0 -0 -0 -0 -0 -0 -0 -0 -0 -0 -0 -0 -0 -0 -0 -0 -291 -0 -0 -0 -0 -0 -0 -0 -0 -0 -0 -0 -0 -0 -0 -0 -0 -0 -0 -0 -0 -0 -0 -0 -0 -0 -0
-0 -0 -0 -0 -0 -0 -0 -0 -0 -0 -0 -0 -0 -0 -0 -0 -0 -0 -0 -0 -0 -0 -0 -0 -0 -0 -0 -0 -0 -0 -0 -0 -0 -0 -0 -0 -0 -0 -0 -0 -0 -0 -0 -0 -0
-0 -0 -0 -0 -0 -0 -0 -0 -0 -0 -1 -0 -1 -0 -0 -0 -0 -0 -0 -0 -0 -0 -0 -0 -0 -0 -0 -0 -0 -0 -0 -0 -0 -0 -0 -0 -0 -0 -0 -0 -0 -0 -0 -0 -0
-0 -0 -0 -0 -0 -0 -0 -0 -0 -0 -0 -0 -0 -0 -0 -0 -0 -0 -0 -0 -0 -0 -0 -0 -0 -0 -0 -0 -0 -0 -0 -0 -0 -0 -0 -0 -0 -0 -0 -0 -0 -0 -0 -0 -0
-0 -0 -0 -0 -0 -0 -0 -0 -0 -0 -0 -1 -0 -0 -0 -0 -0 -0 -0 -0 -0 -0 -0 -0 -0 -0 -0 -0 -0 -0 -0 -0 -0 -0 -0 -0 -0 -0 -0 -0 -0 -0 -0 -0 -0
-0 -0 -0 -0 -0 -0 -0 -0 -0 -0 -0 -0 -0 -0 -0 -0 -0 -0 -0 -0 -0 -0 -0 -0 -0 -0 -0 -0 -0 -0 -0 -0 -0 -0 -0 -0 -0 -0 -0 -0 -0 -0 -0 -0 -0
-0 -0 -0 -0 -0 -0 -1 -0 -0 -0 -0 -0 -0 -0 -0 -0 -0 -0 -0 -0 -0 -0 -0 -0 -0 -0 -0 -0 -0 -0 -0 -0 -0 -0 -0 -0 -0 -0 -0 -0 -0 -0 -0 -0 -0
-0 -0 -0 -0 -0 -0 -0 -0 -0 -0 -0 -0 -0 -0 -0 -0 -0 -0 -0 -0 -0 -0 -0 -0 -0 -0 -0 -0 -0 -0 -0 -0 -0 -0 -0 -0 -0 -0 -0 -0 -0 -0 -0 -0 -0
-0 -0 -0 -0 -0 -0 -0 -0 -0 -0 -0 -0 -0 -0 -0 -0 -0 -0 -0 -0 -0 -0 -0 -0 -0 -0 -0 -0 -0 -0 -0 -0 -0 -0 -0 -0 -0 -0 -0 -0 -0 -0 -0 -0 -0
-0 -0 -0 -0 -0 -0 -0 -0 -0 -0 -0 -0 -0 -0 -0 -0 -0 -0 -0 -0 -0 -0 -0 -0 -0 -0 -0 -0 -0 -0 -0 -0 -0 -0 -0 -0 -0 -0 -0 -0 -0 -0 -0 -0 -0
-0 -0 -0 -0 -0 -0 -0 -0 -0 -0 -0 -0 -0 -0 -0 -0 -0 -0 -0 -0 -0 -0 -0 -0 -0 -0 -0 -0 -0 -0 -0 -0 -0 -0 -0 -0 -0 -0 -0 -0 -0 -0 -0 -0 -0
-0 -0 -0 -0 -0 -0 -0 -0 -0 -0 -0 -0 -0 -0 -0 -0 -0 -0 -0 -0 -0 -0 -0 -0 -0 -0 -0 -0 -0 -0 -0 -0 -0 -0 -0 -0 -0 -0 -0 -0 -0 -0 -0 -0 -0
-0 -0 -0 -0 -0 -0 -0 -0 -0 -0 -0 -1 -0 -0 -0 -0 -0 -0 -0 -0 -0 -0 -0 -0 -0 -0 -0 -0 -0 -0 -0 -0 -0 -0 -0 -0 -0 -0 -0 -0 -0 -0 -0 -0 -0
-0 -0 -0 -0 -0 -0 -0 -0 -0 -0 -0 -1 -0 -0 -0 -0 -0 -0 -0 -0 -0 -0 -0 -0 -0 -0 -0 -0 -0 -0 -0 -0 -0 -0 -0 -0 -0 -0 -0 -1 -0 -0 -0 -0 -0
-0 -0 -0 -0 -0 -0 -0 -0 -0 -0 -0 -0 -0 -0 -0 -0 -0 -0 -1 -0 -0 -0 -0 -0 -1 -0 -0 -0 -0 -0 -0 -0 -0 -0 -0 -0 -0 -0 -0 -0 -0 -0 -7 -8 -0
-0 -0 -0 -0 -0 -0 -0 -0 -0 -0 -0 -0 -0 -2 -0 -4 -0 -0 -0 -0 -1 -0 -0 -0 -0 -0 -0 -0 -0 -0 -0 -2 -0 -0 -0 -0 -0 -0 -1 -10 -0 -0 -0 -5 -0
-0 -0 -0 -0 -0 -0 -0 -0 -0 -0 -0 -0 -0 -0 -0 -0 -0 -0 -0 -0 -0 -0 -4 -1 -1 -0 -0 -0 -0 -0 -1 -0 -0 -0 -0 -0 -0 -0 -1 -0 -0 -0 -0 -1 -11
-0 -0 -0 -0 -0 -1 -0 -0 -0 -0 -0 -0 -0 -0 -0 -0 -0 -0 -1 -0 -3 -4 -0 -0 -0 -0 -0 -0 -0 -3 -0 -0 -0 -0 -0 -0 -0 -3 -0 -1 -0 -0 -0 -0 -47
-0 -0 -0 -0 -0 -0 -0 -0 -0 -0 -0 -1 -0 -0 -0 -1 -1 -1 -1 -1 -0 -0 -0 -0 -0 -0 -0 -1 -0 -0 -0 -0 -0 -0 -0 -8 -0 -0 -25 -4 -0 -4 -0 -0 -13
-0 -0 -0 -0 -0 -0 -0 -0 -0 -0 -0 -0 -0 -0 -0 -0 -0 -0 -1 -0 -0 -0 -1 -0 -0 -0 -0 -0 -0 -0 -0 -0 -0 -0 -4 -0 -40 -0 -0 -0 -0 -0 -1 -1 -1
-0 -0 -0 -0 -0 -0 -0 -0 -0 -0 -0 -0 -0 -0 -0 -0 -0 -0 -0 -1 -0 -0 -29 -0 -0 -0 -0 -0 -1 -0 -0 -0 -0 -0 -0 -3 -0 -9 -0 -0 -0 -0 -0 -0 -0
-0 -0 -0 -0 -0 -0 -0 -0 -0 -0 -3 -0 -0 -0 -0 -0 -0 -0 -0 -0 -0 -0 -4 -0 -0 -0 -0 -0 -0 -0 -0 -0 -0 -0 -0 -0 -0 -4 -0 -0 -0 -0 -1 -1 -0
-0 -0 -0 -0 -0 -0 -1 -0 -0 -0 -0 -0 -0 -0 -0 -0 -0 -0 -0 -0 -0 -0 -0 -0 -0 -0 -0 -0 -0 -0 -0 -0 -0 -0 -0 -0 -0 -1 -1 -1 -0 -0 -0 -0 -0
-0 -0 -3 -0 -0 -0 -0 -0 -0 -0 -0 -0 -0 -0 -0 -0 -0 -0 -0 -0 -0 -0 -0 -0 -0 -0 -0 -0 -0 -0 -0 -2 -0 -0 -0 -0 -0 -0 -0 -0 -0 -0 -0 -0 -0
Wind_Speed
17 17 16 15 13 13 13 12 12 13 12 12 13 12 12 12 14 13 14 5 3 12 3 6 11 13 13 12 9 8 12 15 20 13 12 6 15 15 8 12 12 14 9 9 8
18 17 17 16 15 13 13 13 11 11 11 12 11 11 11 11 14 16 9 4 13 6 10 11 13 14 13 13 10 14 13 17 3 1 7 9 13 14 15 18 15 15 14 10 5
19 18 17 16 14 13 11 11 11 11 10 9 10 10 11 13 9 4 8 13 11 11 12 6 9 13 11 9 11 13 15 11 4 8 12 16 16 15 18 21 19 16 17 14 12
20 19 18 17 15 13 12 10 9 9 9 9 9 9 10 8 1 7 7 17 11 11 11 9 12 12 11 12 11 8 10 9 10 11 13 17 16 19 18 20 19 18 19 19 18
18 19 19 18 16 14 13 11 8 7 6 7 7 7 10 8 6 9 9 13 12 9 11 11 11 10 11 11 9 13 6 8 10 10 13 14 17 18 19 15 16 18 18 19 19
17 19 20 19 17 15 13 12 9 7 6 6 6 5 7 9 4 1 9 13 9 11 9 9 6 4 4 7 14 7 6 8 7 10 11 14 17 16 11 8 13 14 15 16 18
18 17 18 19 19 17 14 11 10 9 8 7 5 8 9 11 1 1 10 7 7 6 9 4 1 9 5 7 4 6 10 11 12 13 9 12 16 20 15 15 11 11 13 14 15
19 18 19 19 18 19 16 13 13 11 8 7 6 7 8 4 2 5 9 6 5 5 3 3 3 1 6 3 6 10 7 12 9 6 7 7 13 6 8 8 11 11 11 12 14
20 20 18 21 20 19 17 14 15 8 8 8 7 7 3 7 8 12 12 6 8 5 3 1 6 3 6 10 8 9 11 6 4 7 8 12 11 1 6 13 16 15 14 12 12
19 20 21 20 20 18 11 13 8 12 8 7 4 7 7 6 4 7 11 8 10 10 7 8 7 9 9 8 9 4 9 7 10 4 9 14 17 16 14 15 16 14 15 14 13
21 20 22 22 21 17 11 5 7 8 8 9 5 10 4 1 5 9 11 12 9 11 13 12 11 11 11 9 7 6 8 10 8 9 12 15 16 15 16 16 17 15 13 13 13
22 21 22 23 22 16 6 6 5 6 9 13 14 13 10 2 4 10 11 14 11 14 11 8 13 9 6 7 9 10 11 12 9 10 11 15 18 17 18 19 18 17 15 15 15
22 22 22 22 26 5 6 10 5 6 8 1 3 4 6 12 6 10 15 14 13 14 11 13 5 4 4 11 11 12 12 11 14 13 16 20 21 17 15 15 14 16 17 18 18
22 22 21 24 11 4 6 1 6 6 7 7 6 5 6 6 7 8 13 9 8 11 10 9 8 7 8 10 10 12 4 9 13 14 14 14 18 17 14 14 15 15 16 17 18
24 23 21 15 10 5 5 7 6 6 6 4 7 7 5 7 4 7 10 11 11 8 8 6 7 9 10 5 5 9 5 11 15 17 19 20 15 15 17 16 13 10 11 14 18
28 27 22 5 6 7 8 10 6 8 2 4 5 5 6 7 3 6 9 8 4 12 12 15 1 7 10 2 6 11 14 15 16 16 15 17 10 5 11 14 13 17 19 20 19
29 28 9 2 4 5 7 5 7 5 1 3 3 0 1 4 3 6 10 12 10 9 14 16 15 15 6 13 11 10 13 11 12 13 12 6 10 11 17 11 11 14 16 16 13
30 22 4 3 7 7 4 6 5 3 3 4 4 5 1 4 2 7 5 9 6 9 11 10 10 6 5 10 11 5 7 9 13 13 17 20 10 8 7 6 4 5 7 10 12
29 2 1 7 4 3 7 6 6 4 5 6 8 6 8 4 1 7 11 13 5 5 7 5 6 3 2 2 4 2 9 9 12 16 16 14 15 14 6 5 5 4 6 8 12
7 3 7 9 3 6 6 3 1 3 6 6 9 4 5 5 8 6 7 8 7 4 3 2 11 6 6 4 5 9 6 7 5 7 11 9 16 13 3 6 8 13 13 15 15
6 4 7 9 4 7 6 4 2 1 7 7 9 9 9 10 11 8 6 2 1 1 5 7 6 3 4 10 11 8 8 6 5 5 6 10 8 8 12 13 15 10 12 15 14
5 3 7 6 6 1 3 4 2 5 6 8 7 11 13 12 9 11 9 5 3 5 10 1 7 10 14 5 5 10 13 11 8 8 7 8 18 12 7 9 11 17 21 15 13
6 4 5 6 4 1 3 4 6 7 7 4 6 7 9 11 6 13 9 3 4 6 4 4 5 8 8 8 6 8 8 10 11 12 17 15 15 3 14 22 17 22 20 14 12
5 2 3 5 4 5 6 6 5 2 9 8 8 9 10 13 11 4 6 4 5 8 3 2 11 13 12 15 5 9 11 12 14 11 18 19 26 21 21 20 18 16 17 17 16
4 4 4 3 3 7 7 5 8 5 5 5 5 8 8 7 11 12 9 7 7 4 5 6 14 15 17 17 15 16 17 17 20 20 21 24 26 24 21 20 17 18 19 21 21
5 5 1 0 4 5 3 2 7 5 4 3 8 6 6 7 13 11 4 8 9 5 8 5 8 9 14 15 16 18 18 18 19 20 22 24 25 20 15 15 20 21 21 23 25
1 1 4 3 2 3 2 2 5 7 6 10 10 5 9 13 11 13 12 18 13 14 10 10 7 8 13 3 9 15 8 4 8 11 13 16 21 23 23 20 19 21 26 29 29
Wind_Direction
347 344 342 337 335 327 322 315 309 306 306 302 303 305 310 315 298 253 256 279 193 253 258 166 173 192 210 203 205 227 228 234 235 225 236 238 248 250 272 266 270 280 280 313 353
348 348 344 341 335 333 326 319 312 304 300 301 306 310 315 314 289 266 239 238 215 284 201 194 164 178 198 204 199 212 223 237 251 238 240 233 252 264 271 268 258 265 268 266 259
350 347 345 342 337 332 327 323 319 313 308 308 311 315 310 296 271 121 155 202 210 221 224 230 160 184 191 197 196 218 241 238 201 232 238 251 251 256 261 261 262 272 280 274 283
348 348 348 344 337 331 325 318 319 316 314 311 311 310 307 281 301 45 336 170 186 179 211 191 185 192 201 199 193 225 238 246 228 229 237 255 264 261 254 266 276 278 275 277 269
342 344 344 345 341 330 320 315 309 303 304 300 295 305 281 241 257 69 115 153 172 193 189 192 200 203 205 201 176 226 207 236 243 244 252 258 258 261 258 256 265 264 262 266 268
338 341 343 340 338 333 321 308 299 281 269 266 279 290 263 259 57 101 140 165 190 203 200 217 212 244 167 186 214 165 200 216 231 243 239 250 258 246 242 226 244 253 258 258 260
336 336 337 339 336 331 323 308 291 276 256 249 236 244 254 269 332 174 174 193 182 216 184 158 131 226 162 167 157 178 232 211 229 238 253 275 261 251 255 266 275 267 266 261 259
331 331 331 332 331 330 322 310 295 269 242 222 199 230 263 142 192 223 188 198 208 201 280 189 228 261 263 80 191 234 243 249 140 208 220 221 269 201 188 255 267 279 282 268 261
330 328 329 328 328 329 323 314 299 227 202 194 195 245 257 134 213 203 198 193 180 198 203 192 259 284 196 233 229 201 265 216 263 212 262 237 283 317 241 281 282 275 265 270 270
327 326 327 325 325 324 329 315 120 151 191 194 260 248 229 162 127 152 188 203 183 180 194 215 222 228 226 225 245 228 237 223 267 263 239 269 273 278 277 274 270 276 277 267 263
324 327 324 324 321 320 294 196 202 187 207 255 283 282 269 220 184 188 177 194 198 203 215 203 229 219 221 224 289 255 258 260 262 266 268 274 278 283 287 281 273 265 258 266 277
323 327 325 322 317 321 222 240 340 359 289 229 251 264 255 316 212 163 178 194 202 217 208 205 232 263 244 242 230 236 246 251 254 248 261 267 274 281 278 279 276 275 272 270 266
321 323 322 319 317 243 253 269 304 308 268 170 186 217 197 195 217 180 198 206 208 221 213 254 88 90 202 207 229 230 257 279 286 298 272 264 270 266 259 231 259 274 275 271 267
318 320 321 330 285 341 266 167 260 290 265 124 168 135 153 191 210 198 210 203 208 229 222 258 242 239 226 236 234 259 264 277 286 285 289 325 293 288 277 276 262 267 275 276 274
316 318 317 317 303 256 22 319 303 223 243 109 98 131 150 218 101 162 205 222 242 199 230 118 182 203 224 242 238 283 320 285 289 282 291 279 267 279 280 281 294 302 302 282 281
318 320 324 203 213 281 310 304 241 229 134 115 124 154 174 208 170 125 189 223 292 248 235 275 224 273 279 288 244 304 277 276 265 264 268 279 307 313 315 330 324 313 314 315 310
322 325 320 273 36 335 313 237 234 271 106 102 84 297 174 143 219 231 191 198 233 223 231 230 233 230 257 252 221 258 264 276 275 250 259 328 302 291 305 5 329 317 308 299 329
325 318 155 305 307 312 252 240 264 39 357 15 303 259 190 22 193 330 227 233 207 270 277 284 279 189 164 256 300 286 310 289 291 292 302 318 277 262 12 65 332 360 8 0 345
312 288 7 14 2 263 258 251 6 358 351 324 295 247 202 215 142 334 319 295 310 231 257 285 244 107 320 254 283 159 251 1 293 274 265 254 254 252 227 173 247 308 329 344 343
309 287 46 342 284 264 260 324 282 7 333 308 285 279 262 191 198 191 214 250 221 246 255 286 278 180 131 220 201 266 19 249 212 282 288 292 308 290 229 279 318 321 331 337 324
269 237 33 345 256 245 289 27 303 12 332 328 314 288 274 264 231 230 247 205 293 158 267 278 248 250 199 227 265 193 213 216 271 268 291 300 282 40 314 300 307 297 313 320 319
290 224 19 331 241 298 310 342 328 301 309 295 274 271 269 264 269 221 232 249 349 322 257 125 297 275 275 337 305 282 281 262 227 237 232 291 278 288 358 329 309 285 306 313 308
338 334 17 302 305 293 346 283 296 314 313 310 282 292 285 283 261 250 250 137 296 266 296 165 229 276 238 189 199 249 229 243 253 249 257 270 275 302 273 313 317 319 307 314 304
301 291 77 62 70 338 339 290 283 308 293 303 275 282 267 259 249 254 227 263 266 277 58 296 263 259 277 313 313 252 250 247 253 250 266 261 277 289 300 309 318 322 324 313 297
351 61 6 359 39 346 322 306 298 327 25 333 313 276 311 274 242 243 226 271 247 227 231 269 265 266 269 277 279 272 264 263 258 257 257 280 284 294 299 318 302 302 309 308 306
333 344 222 6 336 322 250 338 355 13 318 288 265 337 311 279 281 298 314 275 281 244 251 225 263 271 275 267 264 266 264 263 263 265 269 278 282 291 311 287 300 318 316 307 303
70 150 294 129 333 309 306 357 296 315 273 246 287 331 287 274 259 269 274 265 276 285 276 248 259 270 280 236 277 266 273 288 287 277 286 286 299 311 303 318 310 310 309 304 299